TimePST,TemperatureF,Dew PointF,Humidity,Sea Level PressureIn,VisibilityMPH,Wind Direction,Wind SpeedMPH,Gust SpeedMPH,PrecipitationIn,Events,Conditions,WindDirDegrees,DateUTC
12:53 AM,19.0,14.0,81,30.16,10.0,Variable,3.5,-,N/A,,Clear,0,2013-02-07 08:53:00
1:53 AM,17.1,12.9,84,30.17,10.0,South,8.1,-,N/A,,Clear,170,2013-02-07 09:53:00
2:53 AM,18.0,12.9,81,30.12,10.0,South,8.1,-,N/A,,Clear,180,2013-02-07 10:53:00
3:53 AM,19.0,12.9,77,30.10,10.0,SSE,16.1,19.6,N/A,,Clear,160,2013-02-07 11:53:00
4:06 AM,19.4,12.2,74,30.08,10.0,South,18.4,-,N/A,,Clear,170,2013-02-07 12:06:00
4:53 AM,19.9,12.0,71,30.13,10.0,South,13.8,17.3,N/A,,Clear,180,2013-02-07 12:53:00
5:53 AM,17.1,10.9,77,30.16,10.0,South,10.4,-,N/A,,Clear,180,2013-02-07 13:53:00
6:53 AM,17.1,10.9,77,30.17,10.0,SSE,9.2,-,N/A,,Clear,160,2013-02-07 14:53:00
7:53 AM,27.0,14.0,58,30.13,10.0,SSW,13.8,-,N/A,,Clear,200,2013-02-07 15:53:00
8:53 AM,30.0,18.0,61,30.11,10.0,SSW,18.4,-,N/A,,Clear,200,2013-02-07 16:53:00
9:53 AM,35.1,21.0,57,30.07,10.0,SSW,13.8,-,N/A,,Clear,200,2013-02-07 17:53:00
10:53 AM,39.9,19.0,43,30.03,10.0,SSE,17.3,26.5,N/A,,Clear,160,2013-02-07 18:53:00
11:53 AM,41.0,18.0,40,29.97,10.0,SSE,20.7,28.8,N/A,,Clear,150,2013-02-07 19:53:00
12:53 PM,43.0,18.0,37,29.93,10.0,SSE,27.6,-,N/A,,Clear,160,2013-02-07 20:53:00
1:53 PM,42.1,19.0,40,29.91,10.0,South,24.2,32.2,N/A,,Clear,170,2013-02-07 21:53:00
2:53 PM,43.0,19.0,38,29.89,10.0,SSE,19.6,26.5,N/A,,Clear,150,2013-02-07 22:53:00
3:53 PM,42.1,19.9,41,29.87,10.0,SSE,17.3,-,N/A,,Clear,160,2013-02-07 23:53:00
4:53 PM,37.9,21.0,51,29.88,10.0,SSE,11.5,-,N/A,,Clear,160,2013-02-08 00:53:00
5:53 PM,33.1,21.9,64,29.91,10.0,South,12.7,-,N/A,,Clear,170,2013-02-08 01:53:00
6:53 PM,33.1,21.0,61,29.89,10.0,SSE,13.8,-,N/A,,Clear,160,2013-02-08 02:53:00
7:53 PM,35.1,19.0,52,29.82,10.0,SSE,18.4,28.8,N/A,,Clear,150,2013-02-08 03:53:00
8:53 PM,35.1,18.0,50,29.79,10.0,SSE,20.7,26.5,N/A,,Clear,150,2013-02-08 04:53:00
9:53 PM,30.0,19.9,66,29.78,10.0,SSW,10.4,-,N/A,,Clear,210,2013-02-08 05:53:00
10:53 PM,33.1,21.0,61,29.73,10.0,SSE,11.5,18.4,N/A,,Scattered Clouds,160,2013-02-08 06:53:00
11:53 PM,30.9,21.9,69,29.72,10.0,SW,9.2,-,N/A,,Scattered Clouds,220,2013-02-08 07:53:00